AEE772 EPWA-LGTS

Flight info

Callsign AEE772
Flight time 1h 43m
Altitude 38000
Route EVINA M66 BABKO/N0452F390 DCT LITKU DCT PARAK DCT RAXAD DCT ERANA UT389 ALIKO
Aircraft A20N/M-SDE2E3FGHIRWXY/LB1

Departure

Time 2026-05-07 17:13
Airport Warsaw Chopin Airport (EPWA)

Arrival

Time 2026-05-07 18:56
Airport Thessaloniki Macedonia International Airport (LGTS)
Time Latitude Longitude Altitude Speed Heading
2026-05-07 16:49 52.16824 20.97319 360 ft 0 kts 73°
2026-05-07 17:07 52.16822 20.97305 360 ft 2 kts 73°
2026-05-07 17:07 52.16818 20.97286 363 ft 2 kts 72°
2026-05-07 17:07 52.16813 20.97260 363 ft 2 kts 73°
2026-05-07 17:07 52.16809 20.97234 363 ft 2 kts 78°
2026-05-07 17:08 52.16807 20.97208 360 ft 2 kts 96°
2026-05-07 17:08 52.16811 20.97184 360 ft 1 kts 135°
2026-05-07 17:08 52.16814 20.97180 360 ft 0 kts 147°
2026-05-07 17:09 52.16808 20.97185 360 ft 4 kts 148°
2026-05-07 17:10 52.16747 20.97216 364 ft 15 kts 171°
2026-05-07 17:10 52.16623 20.97237 361 ft 18 kts 169°
2026-05-07 17:10 52.16585 20.97337 361 ft 15 kts 115°
2026-05-07 17:10 52.16531 20.97531 358 ft 21 kts 114°
2026-05-07 17:11 52.16476 20.97725 357 ft 14 kts 115°
2026-05-07 17:11 52.16413 20.97809 364 ft 12 kts 192°
2026-05-07 17:11 52.16360 20.97764 357 ft 0 kts 207°
2026-05-07 17:12 52.16345 20.97752 356 ft 8 kts 208°
2026-05-07 17:12 52.16309 20.97658 358 ft 10 kts 295°
2026-05-07 17:12 52.16366 20.97452 362 ft 50 kts 295°
2026-05-07 17:12 52.16631 20.96519 366 ft 128 kts 295°
2026-05-07 17:13 52.17066 20.94932 653 ft 165 kts 296°
2026-05-07 17:13 52.17571 20.93149 1619 ft 178 kts 293°
2026-05-07 17:13 52.18132 20.91318 2547 ft 182 kts 294°
2026-05-07 17:13 52.18627 20.89410 3373 ft 188 kts 276°
2026-05-07 17:14 52.18452 20.87259 3953 ft 199 kts 251°
2026-05-07 17:14 52.18007 20.85009 4426 ft 221 kts 251°
2026-05-07 17:14 52.17535 20.82485 4955 ft 243 kts 252°
2026-05-07 17:14 52.17066 20.79749 5701 ft 254 kts 253°
2026-05-07 17:15 52.16537 20.77007 6703 ft 254 kts 242°
2026-05-07 17:15 52.15370 20.74832 7615 ft 258 kts 215°
2026-05-07 17:15 52.13708 20.73643 8539 ft 265 kts 201°
2026-05-07 17:15 52.11931 20.72742 9465 ft 269 kts 200°
2026-05-07 17:16 52.10123 20.71869 10327 ft 275 kts 200°
2026-05-07 17:16 52.08309 20.70966 10690 ft 296 kts 200°
2026-05-07 17:16 52.06281 20.69920 11024 ft 317 kts 200°
2026-05-07 17:16 52.04107 20.68781 11776 ft 323 kts 200°
2026-05-07 17:17 52.01955 20.67646 12647 ft 325 kts 200°
2026-05-07 17:17 52.00515 20.66884 13203 ft 328 kts 200°
2026-05-07 17:17 51.98233 20.65674 13898 ft 338 kts 200°
2026-05-07 17:17 51.95918 20.64447 14111 ft 357 kts 200°
2026-05-07 17:18 51.93453 20.63143 14299 ft 376 kts 200°
2026-05-07 17:18 51.90918 20.61806 14479 ft 393 kts 200°
2026-05-07 17:18 51.88250 20.60402 14702 ft 406 kts 200°
2026-05-07 17:18 51.85555 20.58988 15231 ft 409 kts 200°
2026-05-07 17:19 51.82807 20.57548 15745 ft 412 kts 200°
2026-05-07 17:19 51.80021 20.56090 16245 ft 414 kts 200°
2026-05-07 17:19 51.77308 20.54669 16668 ft 416 kts 200°
2026-05-07 17:19 51.74537 20.53220 17088 ft 419 kts 200°
2026-05-07 17:20 51.71753 20.51766 17510 ft 421 kts 200°
2026-05-07 17:20 51.68964 20.50310 17932 ft 423 kts 200°
2026-05-07 17:20 51.66116 20.48826 18395 ft 425 kts 200°
2026-05-07 17:20 51.63299 20.47360 18872 ft 428 kts 200°
2026-05-07 17:21 51.60457 20.45884 19363 ft 430 kts 200°
2026-05-07 17:21 51.57606 20.44404 19847 ft 432 kts 200°
2026-05-07 17:21 51.54751 20.42925 20337 ft 434 kts 200°
2026-05-07 17:21 51.51832 20.41414 20844 ft 436 kts 200°
2026-05-07 17:22 51.48947 20.39924 21351 ft 437 kts 200°
2026-05-07 17:22 51.46015 20.38411 21878 ft 439 kts 200°
2026-05-07 17:22 51.43114 20.36915 22402 ft 439 kts 200°
2026-05-07 17:22 51.40215 20.35422 22937 ft 440 kts 200°
2026-05-07 17:23 51.37287 20.33917 23481 ft 440 kts 200°
2026-05-07 17:23 51.34256 20.32361 23927 ft 442 kts 199°
2026-05-07 17:23 51.31340 20.30866 24342 ft 443 kts 199°
2026-05-07 17:23 51.28376 20.29349 24772 ft 443 kts 199°
2026-05-07 17:24 51.25367 20.27810 25217 ft 444 kts 199°
2026-05-07 17:24 51.22466 20.26329 25655 ft 443 kts 199°
2026-05-07 17:24 51.19431 20.24781 26106 ft 442 kts 199°
2026-05-07 17:24 51.16501 20.23290 26561 ft 441 kts 199°
2026-05-07 17:25 51.13587 20.21808 27031 ft 439 kts 199°
2026-05-07 17:25 51.10691 20.20338 27489 ft 437 kts 199°
2026-05-07 17:25 51.07781 20.18862 27969 ft 435 kts 199°
2026-05-07 17:25 51.04906 20.17405 28451 ft 433 kts 199°
2026-05-07 17:26 51.02054 20.15963 28945 ft 430 kts 199°
2026-05-07 17:26 50.99200 20.14521 29452 ft 428 kts 199°
2026-05-07 17:26 50.96363 20.13089 29963 ft 426 kts 199°
2026-05-07 17:26 50.93555 20.11675 30404 ft 424 kts 199°
2026-05-07 17:27 50.90735 20.10257 30849 ft 422 kts 199°
2026-05-07 17:27 50.88006 20.08886 31264 ft 421 kts 199°
2026-05-07 17:27 50.85008 20.07380 31648 ft 421 kts 200°
2026-05-07 17:27 50.82236 20.05991 32011 ft 421 kts 200°
2026-05-07 17:28 50.80334 20.05039 32254 ft 421 kts 200°
2026-05-07 17:28 50.77545 20.03644 32624 ft 421 kts 200°
2026-05-07 17:28 50.74738 20.02242 32996 ft 420 kts 200°
2026-05-07 17:28 50.71593 20.00674 33427 ft 419 kts 200°
2026-05-07 17:29 50.68349 19.99060 33880 ft 417 kts 200°
2026-05-07 17:29 50.63257 19.96530 34503 ft 414 kts 200°
2026-05-07 17:29 50.59061 19.94449 35019 ft 411 kts 200°
2026-05-07 17:29 50.56320 19.93091 35364 ft 408 kts 200°
2026-05-07 17:30 50.53634 19.91762 35708 ft 406 kts 200°
2026-05-07 17:30 50.50923 19.90421 35919 ft 407 kts 200°
2026-05-07 17:30 50.45329 19.87657 35957 ft 418 kts 200°
2026-05-07 17:31 50.39722 19.84897 35962 ft 427 kts 200°
2026-05-07 17:31 50.33972 19.82076 35954 ft 432 kts 200°
2026-05-07 17:32 50.28216 19.79260 35947 ft 432 kts 200°
2026-05-07 17:32 50.22491 19.76465 35944 ft 430 kts 200°
2026-05-07 17:33 50.16759 19.73673 35939 ft 431 kts 200°
2026-05-07 17:33 50.11068 19.70906 35936 ft 431 kts 200°
2026-05-07 17:34 50.05313 19.68118 35936 ft 431 kts 200°
2026-05-07 17:34 49.99593 19.65352 35940 ft 431 kts 200°
2026-05-07 17:35 49.93856 19.62586 35947 ft 431 kts 200°
2026-05-07 17:35 49.88134 19.59834 35953 ft 431 kts 200°
2026-05-07 17:36 49.82397 19.57079 35958 ft 431 kts 200°
2026-05-07 17:36 49.76658 19.54332 35965 ft 430 kts 200°
2026-05-07 17:37 49.70936 19.51600 35971 ft 430 kts 200°
2026-05-07 17:37 49.64932 19.49584 35974 ft 438 kts 185°
2026-05-07 17:38 49.61769 19.50033 35984 ft 447 kts 172°
2026-05-07 17:38 49.58850 19.51207 35978 ft 450 kts 169°
2026-05-07 17:38 49.52701 19.53995 35980 ft 450 kts 169°
2026-05-07 17:39 49.47650 19.56230 35987 ft 450 kts 169°
2026-05-07 17:39 49.41568 19.58852 35987 ft 450 kts 169°
2026-05-07 17:40 49.35485 19.61451 35990 ft 450 kts 169°
2026-05-07 17:40 49.29364 19.64060 35989 ft 451 kts 169°
2026-05-07 17:41 49.23392 19.66601 35994 ft 452 kts 169°
2026-05-07 17:41 49.17155 19.69245 36004 ft 451 kts 169°
2026-05-07 17:42 49.10926 19.71878 36004 ft 450 kts 169°
2026-05-07 17:42 49.04839 19.74444 35995 ft 451 kts 169°
2026-05-07 17:43 48.98609 19.77065 35992 ft 451 kts 169°
2026-05-07 17:43 48.92501 19.79625 36001 ft 451 kts 169°
2026-05-07 17:44 48.87337 19.81785 36007 ft 452 kts 169°
2026-05-07 17:44 48.81195 19.84347 36003 ft 451 kts 169°
2026-05-07 17:45 48.75143 19.86867 36005 ft 452 kts 169°
2026-05-07 17:45 48.68983 19.89425 36001 ft 451 kts 169°
2026-05-07 17:46 48.62943 19.91926 36005 ft 451 kts 169°
2026-05-07 17:46 48.56887 19.94429 35998 ft 450 kts 169°
2026-05-07 17:47 48.50818 19.96929 36000 ft 451 kts 169°
2026-05-07 17:47 48.44763 19.99419 35997 ft 450 kts 169°
2026-05-07 17:48 48.38480 20.01996 35999 ft 450 kts 169°
2026-05-07 17:48 48.32543 20.04425 35999 ft 450 kts 169°
2026-05-07 17:49 48.26365 20.06946 35999 ft 450 kts 169°
2026-05-07 17:49 48.20328 20.09404 35998 ft 450 kts 169°
2026-05-07 17:50 48.14188 20.11896 35999 ft 450 kts 169°
2026-05-07 17:50 48.08209 20.14319 35999 ft 450 kts 169°
2026-05-07 17:51 48.02109 20.16784 35994 ft 450 kts 169°
2026-05-07 17:51 47.96040 20.19231 35995 ft 450 kts 169°
2026-05-07 17:52 47.90007 20.21657 35996 ft 450 kts 169°
2026-05-07 17:52 47.85382 20.23512 35997 ft 450 kts 169°
2026-05-07 17:53 47.79338 20.25932 35998 ft 451 kts 169°
2026-05-07 17:53 47.73283 20.28351 35995 ft 451 kts 169°
2026-05-07 17:54 47.67215 20.30769 35996 ft 452 kts 169°
2026-05-07 17:54 47.61172 20.33172 35994 ft 452 kts 169°
2026-05-07 17:55 47.55399 20.35461 35999 ft 452 kts 169°
2026-05-07 17:55 47.48882 20.38040 36000 ft 452 kts 169°
2026-05-07 17:56 47.42727 20.40469 35990 ft 452 kts 169°
2026-05-07 17:56 47.36650 20.42861 35989 ft 452 kts 169°
2026-05-07 17:57 47.31549 20.44865 35998 ft 452 kts 169°
2026-05-07 17:57 47.23929 20.47852 35991 ft 452 kts 169°
2026-05-07 17:58 47.18699 20.49896 35995 ft 449 kts 169°
2026-05-07 17:58 47.12779 20.52201 35990 ft 450 kts 169°
2026-05-07 17:59 47.06554 20.54622 35998 ft 450 kts 169°
2026-05-07 17:59 47.00412 20.57007 35997 ft 450 kts 169°
2026-05-07 18:00 46.94340 20.59359 35995 ft 450 kts 169°
2026-05-07 18:00 46.88249 20.61711 36000 ft 451 kts 169°
2026-05-07 18:01 46.82182 20.64051 36005 ft 451 kts 169°
2026-05-07 18:01 46.76063 20.66404 36000 ft 452 kts 169°
2026-05-07 18:02 46.66864 20.69932 36004 ft 452 kts 169°
2026-05-07 18:03 46.60773 20.72261 36002 ft 453 kts 169°
2026-05-07 18:03 46.54642 20.74600 36001 ft 453 kts 169°
2026-05-07 18:04 46.48535 20.76925 36003 ft 453 kts 169°
2026-05-07 18:04 46.42444 20.79238 36005 ft 454 kts 169°
2026-05-07 18:05 46.36306 20.81564 36007 ft 454 kts 169°
2026-05-07 18:05 46.30166 20.83884 36006 ft 455 kts 169°
2026-05-07 18:06 46.24045 20.86192 36012 ft 455 kts 169°
2026-05-07 18:06 46.17879 20.88511 36009 ft 456 kts 169°
2026-05-07 18:07 46.11746 20.90813 36011 ft 456 kts 169°
2026-05-07 18:07 46.05600 20.93114 36012 ft 457 kts 169°
2026-05-07 18:08 45.99537 20.95379 36009 ft 457 kts 169°
2026-05-07 18:08 45.93340 20.97689 36010 ft 458 kts 169°
2026-05-07 18:09 45.87134 20.99997 36010 ft 458 kts 169°
2026-05-07 18:09 45.80972 21.02283 36013 ft 458 kts 169°
2026-05-07 18:10 45.74783 21.04574 36011 ft 459 kts 169°
2026-05-07 18:10 45.68563 21.06871 36011 ft 459 kts 169°
2026-05-07 18:11 45.62340 21.09164 36015 ft 460 kts 169°
2026-05-07 18:11 45.56150 21.11440 36018 ft 460 kts 169°
2026-05-07 18:12 45.49921 21.13724 36017 ft 460 kts 169°
2026-05-07 18:12 45.43718 21.15994 36014 ft 461 kts 169°
2026-05-07 18:13 45.37494 21.18267 36018 ft 461 kts 169°
2026-05-07 18:13 45.31286 21.20529 36016 ft 462 kts 169°
2026-05-07 18:14 45.26100 21.22414 36016 ft 462 kts 169°
2026-05-07 18:14 45.19844 21.24683 36020 ft 462 kts 169°
2026-05-07 18:15 45.13625 21.26934 36021 ft 463 kts 169°
2026-05-07 18:15 45.07354 21.29200 36021 ft 463 kts 169°
2026-05-07 18:16 45.00732 21.31586 36038 ft 462 kts 169°
2026-05-07 18:16 44.94787 21.33682 36022 ft 463 kts 169°
2026-05-07 18:17 44.88468 21.35976 36025 ft 464 kts 169°
2026-05-07 18:17 44.82208 21.38229 36029 ft 464 kts 169°
2026-05-07 18:18 44.75908 21.40480 36029 ft 465 kts 169°
2026-05-07 18:18 44.69483 21.42769 36027 ft 465 kts 169°
2026-05-07 18:19 44.63080 21.45045 36028 ft 465 kts 169°
2026-05-07 18:19 44.56779 21.47280 36032 ft 466 kts 169°
2026-05-07 18:20 44.50464 21.49514 36032 ft 466 kts 169°
2026-05-07 18:20 44.44866 21.51491 36034 ft 466 kts 169°
2026-05-07 18:21 44.38382 21.53776 36039 ft 468 kts 170°
2026-05-07 18:21 44.32153 21.55966 36043 ft 468 kts 170°
2026-05-07 18:22 44.25557 21.58280 36036 ft 468 kts 170°
2026-05-07 18:22 44.19218 21.60498 36036 ft 469 kts 170°
2026-05-07 18:23 44.12830 21.62729 36028 ft 469 kts 170°
2026-05-07 18:23 44.06316 21.65000 36044 ft 470 kts 170°
2026-05-07 18:24 43.99848 21.67248 36046 ft 471 kts 170°
2026-05-07 18:24 43.94426 21.69130 36048 ft 472 kts 170°
2026-05-07 18:25 43.87913 21.71385 36047 ft 472 kts 170°
2026-05-07 18:25 43.81349 21.73652 36044 ft 473 kts 170°
2026-05-07 18:26 43.74824 21.75900 36044 ft 473 kts 171°
2026-05-07 18:26 43.68376 21.78118 36047 ft 474 kts 171°
2026-05-07 18:27 43.61926 21.80331 36047 ft 474 kts 171°
2026-05-07 18:27 43.55410 21.82562 36048 ft 474 kts 171°
2026-05-07 18:28 43.48860 21.84800 36050 ft 475 kts 171°
2026-05-07 18:28 43.43459 21.86640 36047 ft 475 kts 171°
2026-05-07 18:29 43.35953 21.89193 36046 ft 476 kts 171°
2026-05-07 18:29 43.30491 21.91047 36050 ft 477 kts 171°
2026-05-07 18:30 43.23971 21.93255 36049 ft 477 kts 171°
2026-05-07 18:30 43.17307 21.95507 36051 ft 478 kts 171°
2026-05-07 18:31 43.10835 21.97689 36056 ft 478 kts 171°
2026-05-07 18:31 43.04264 21.99900 36064 ft 479 kts 171°
2026-05-07 18:32 42.97800 22.02070 36074 ft 479 kts 171°
2026-05-07 18:32 42.90900 22.04381 36076 ft 480 kts 171°
2026-05-07 18:33 42.85310 22.06249 36086 ft 480 kts 171°
2026-05-07 18:33 42.78777 22.08429 36088 ft 480 kts 172°
2026-05-07 18:34 42.72304 22.10583 36091 ft 481 kts 172°
2026-05-07 18:34 42.65357 22.12890 36105 ft 482 kts 172°
2026-05-07 18:35 42.58775 22.15072 36110 ft 482 kts 172°
2026-05-07 18:35 42.51904 22.17346 36110 ft 484 kts 172°
2026-05-07 18:36 42.46322 22.19190 36116 ft 484 kts 172°
2026-05-07 18:36 42.40307 22.21174 36113 ft 485 kts 172°
2026-05-07 18:37 42.33320 22.23422 36114 ft 484 kts 175°
2026-05-07 18:37 42.26479 22.24324 36117 ft 475 kts 187°
2026-05-07 18:38 42.19774 22.24253 36114 ft 475 kts 187°
2026-05-07 18:38 42.12864 22.24226 36113 ft 477 kts 187°
2026-05-07 18:39 42.06187 22.24210 36112 ft 478 kts 187°
2026-05-07 18:39 41.99495 22.24192 36105 ft 479 kts 187°
2026-05-07 18:40 41.92574 22.24173 36114 ft 480 kts 188°
2026-05-07 18:40 41.86768 22.24157 36111 ft 482 kts 188°
2026-05-07 18:41 41.79640 22.24137 36105 ft 483 kts 188°
2026-05-07 18:41 41.73117 22.24125 35922 ft 479 kts 189°
2026-05-07 18:41 41.69781 22.24118 35372 ft 478 kts 188°
2026-05-07 18:42 41.66415 22.24105 34614 ft 479 kts 188°
2026-05-07 18:42 41.63106 22.24090 33640 ft 478 kts 187°
2026-05-07 18:42 41.59794 22.24075 32383 ft 479 kts 187°
2026-05-07 18:42 41.56383 22.24058 31118 ft 480 kts 186°
2026-05-07 18:43 41.53029 22.24040 29848 ft 480 kts 185°
2026-05-07 18:43 41.49663 22.24026 28595 ft 478 kts 185°
2026-05-07 18:43 41.46352 22.24231 27532 ft 475 kts 176°
2026-05-07 18:43 41.43153 22.25246 26528 ft 474 kts 164°
2026-05-07 18:44 41.40177 22.27054 25571 ft 472 kts 153°
2026-05-07 18:44 41.37396 22.29382 24694 ft 465 kts 150°
2026-05-07 18:44 41.34632 22.31769 23751 ft 458 kts 149°
2026-05-07 18:44 41.31967 22.34076 22691 ft 452 kts 149°
2026-05-07 18:45 41.29342 22.36342 21651 ft 445 kts 150°
2026-05-07 18:45 41.26755 22.38567 20636 ft 439 kts 150°
2026-05-07 18:45 41.24221 22.40741 19692 ft 433 kts 150°
2026-05-07 18:45 41.21699 22.42902 18744 ft 428 kts 150°
2026-05-07 18:46 41.19214 22.45027 17740 ft 423 kts 150°
2026-05-07 18:46 41.16748 22.47132 16701 ft 417 kts 150°
2026-05-07 18:46 41.14327 22.49196 15701 ft 411 kts 149°
2026-05-07 18:46 41.11961 22.51214 14742 ft 405 kts 149°
2026-05-07 18:47 41.09588 22.53236 13787 ft 400 kts 149°
2026-05-07 18:47 41.07255 22.55225 12741 ft 395 kts 149°
2026-05-07 18:47 41.04946 22.57193 11727 ft 389 kts 150°
2026-05-07 18:47 41.02640 22.59198 10728 ft 386 kts 146°
2026-05-07 18:48 41.00820 22.61662 9805 ft 392 kts 129°
2026-05-07 18:48 40.99244 22.64654 8764 ft 397 kts 127°
2026-05-07 18:48 40.97647 22.67683 7852 ft 398 kts 127°
2026-05-07 18:48 40.96065 22.70662 7398 ft 387 kts 127°
2026-05-07 18:49 40.94559 22.73494 7156 ft 370 kts 127°
2026-05-07 18:49 40.93093 22.76252 6803 ft 359 kts 128°
2026-05-07 18:49 40.91410 22.78534 6442 ft 344 kts 147°
2026-05-07 18:49 40.89282 22.79936 6067 ft 331 kts 161°
2026-05-07 18:50 40.87180 22.80996 5694 ft 323 kts 161°
2026-05-07 18:50 40.85091 22.82045 5266 ft 316 kts 161°
2026-05-07 18:50 40.83023 22.83086 4523 ft 312 kts 160°
2026-05-07 18:50 40.82128 22.83537 4202 ft 310 kts 160°
2026-05-07 18:51 40.80117 22.84553 3509 ft 306 kts 160°
2026-05-07 18:51 40.77550 22.85854 3106 ft 287 kts 160°
2026-05-07 18:51 40.76310 22.86483 3031 ft 278 kts 159°
2026-05-07 18:51 40.74551 22.87377 3002 ft 261 kts 160°
2026-05-07 18:52 40.72888 22.88221 3026 ft 260 kts 160°
2026-05-07 18:52 40.71188 22.89095 3017 ft 262 kts 156°
2026-05-07 18:52 40.69598 22.90213 2722 ft 260 kts 150°
2026-05-07 18:52 40.68025 22.91404 2385 ft 257 kts 152°
2026-05-07 18:53 40.66424 22.92365 2178 ft 249 kts 160°
2026-05-07 18:53 40.64797 22.93036 1903 ft 245 kts 164°
2026-05-07 18:53 40.63148 22.93606 1649 ft 241 kts 166°
2026-05-07 18:53 40.61540 22.94110 1424 ft 232 kts 166°
2026-05-07 18:54 40.60034 22.94567 1256 ft 211 kts 166°
2026-05-07 18:54 40.58676 22.94984 1055 ft 193 kts 166°
2026-05-07 18:54 40.57418 22.95367 901 ft 172 kts 166°
2026-05-07 18:54 40.56354 22.95684 777 ft 147 kts 166°
2026-05-07 18:55 40.55392 22.95982 559 ft 135 kts 165°
2026-05-07 18:55 40.54484 22.96280 323 ft 135 kts 163°
2026-05-07 18:55 40.53594 22.96587 149 ft 133 kts 164°
2026-05-07 18:55 40.52695 22.96867 40 ft 130 kts 165°
2026-05-07 18:56 40.51904 22.97117 27 ft 95 kts 167°
2026-05-07 18:56 40.51450 22.97262 30 ft 48 kts 166°
2026-05-07 18:56 40.51141 22.97366 28 ft 40 kts 166°
2026-05-07 18:56 40.50993 22.97414 28 ft 15 kts 163°
2026-05-07 18:57 40.50965 22.97534 28 ft 16 kts 72°
2026-05-07 18:57 40.51056 22.97570 28 ft 17 kts 345°
2026-05-07 18:57 40.51181 22.97530 28 ft 21 kts 346°
2026-05-07 18:57 40.51341 22.97480 28 ft 29 kts 347°
2026-05-07 18:58 40.51544 22.97415 28 ft 30 kts 346°
2026-05-07 18:58 40.51755 22.97348 28 ft 32 kts 346°
2026-05-07 18:58 40.51920 22.97338 31 ft 18 kts 63°
2026-05-07 18:58 40.51917 22.97499 28 ft 19 kts 85°
2026-05-07 18:59 40.51988 22.97670 28 ft 25 kts 59°
2026-05-07 18:59 40.52045 22.97862 28 ft 14 kts 69°
2026-05-07 18:59 40.52082 22.97900 28 ft 7 kts 349°
2026-05-07 18:59 40.52118 22.97881 28 ft 3 kts 337°
2026-05-07 19:00 40.52120 22.97880 28 ft 0 kts 337°
2026-05-07 19:04 40.52113 22.97884 28 ft 2 kts 337°
2026-05-07 19:04 40.52094 22.97897 28 ft 8 kts 325°
2026-05-07 19:05 40.52072 22.97954 29 ft 8 kts 293°
2026-05-07 19:05 40.52071 22.97967 28 ft 0 kts 194°
2026-05-07 19:05 40.52055 22.97961 28 ft 4 kts 195°
2026-05-07 19:06 40.52023 22.97946 28 ft 4 kts 199°
2026-05-07 19:06 40.51948 22.98130 29 ft 29 kts 103°
2026-05-07 19:06 40.51887 22.98455 28 ft 41 kts 104°
2026-05-07 19:07 40.51842 22.98680 28 ft 10 kts 116°
2026-05-07 19:07 40.51751 22.98689 28 ft 21 kts 199°
2026-05-07 19:07 40.51693 22.98591 28 ft 6 kts 282°
2026-05-07 19:07 40.51698 22.98530 27 ft 25 kts 265°
2026-05-07 19:08 40.51693 22.98495 27 ft 0 kts 269°
2026-05-07 19:08 40.51696 22.98484 27 ft 6 kts 283°
2026-05-07 19:08 40.51705 22.98415 28 ft 9 kts 278°
2026-05-07 19:08 40.51705 22.98395 28 ft 1 kts 278°
2026-05-07 19:09 40.51714 22.98331 29 ft 0 kts 257°
2026-05-07 19:09 40.51714 22.98330 29 ft 0 kts 258°
2026-05-07 19:09 40.51719 22.98316 29 ft 6 kts 291°
2026-05-07 19:10 40.51737 22.98286 29 ft 8 kts 315°
2026-05-07 19:10 40.51753 22.98249 29 ft 8 kts 272°
2026-05-07 19:10 40.51753 22.98243 29 ft 0 kts 270°
2026-05-07 19:10 40.51799 22.98005 29 ft 85 kts 285°
2026-05-07 19:11 40.52033 22.96785 203 ft 169 kts 284°
2026-05-07 19:11 40.52272 22.95331 1034 ft 151 kts 276°
2026-05-07 19:11 40.52409 22.94076 1723 ft 134 kts 269°
2026-05-07 19:11 40.52557 22.92844 2042 ft 139 kts 281°
2026-05-07 19:12 40.53118 22.91846 2291 ft 142 kts 317°
2026-05-07 19:12 40.54065 22.91414 2482 ft 146 kts 342°
2026-05-07 19:12 40.55079 22.91133 2644 ft 154 kts 340°
2026-05-07 19:12 40.56159 22.90759 2735 ft 164 kts 341°
2026-05-07 19:13 40.57278 22.90342 2856 ft 167 kts 342°
2026-05-07 19:13 40.58381 22.89911 2990 ft 166 kts 342°
2026-05-07 19:13 40.59518 22.89452 3000 ft 171 kts 343°
2026-05-07 19:13 40.60659 22.88978 2996 ft 170 kts 345°
2026-05-07 19:14 40.61733 22.88514 2997 ft 158 kts 343°
2026-05-07 19:14 40.62781 22.88063 2996 ft 158 kts 343°
2026-05-07 19:14 40.63816 22.87618 2998 ft 157 kts 343°
2026-05-07 19:14 40.64515 22.87315 3001 ft 157 kts 343°
2026-05-07 19:15 40.65895 22.86708 2999 ft 157 kts 343°
2026-05-07 19:15 40.66582 22.86402 3001 ft 157 kts 344°
2026-05-07 19:15 40.67597 22.85870 3001 ft 157 kts 338°
2026-05-07 19:15 40.68595 22.85266 3002 ft 156 kts 339°
2026-05-07 19:16 40.69681 22.85135 3000 ft 162 kts 19°
2026-05-07 19:16 40.70594 22.86052 3004 ft 175 kts 63°
2026-05-07 19:16 40.70829 22.87646 3073 ft 186 kts 105°
2026-05-07 19:16 40.70160 22.89181 3199 ft 203 kts 147°
2026-05-07 19:17 40.68841 22.89993 3275 ft 208 kts 175°
2026-05-07 19:17 40.67439 22.90297 2761 ft 205 kts 181°
2026-05-07 19:17 40.66027 22.90611 2221 ft 205 kts 173°
2026-05-07 19:17 40.64722 22.91205 2043 ft 192 kts 162°
2026-05-07 19:18 40.63549 22.91991 1993 ft 183 kts 156°
2026-05-07 19:18 40.62491 22.92780 1857 ft 163 kts 155°
2026-05-07 19:18 40.61563 22.93494 1525 ft 148 kts 154°
2026-05-07 19:18 40.60637 22.94098 1018 ft 148 kts 163°
2026-05-07 19:19 40.59737 22.94515 846 ft 138 kts 156°
2026-05-07 19:19 40.58794 22.94933 800 ft 144 kts 166°
2026-05-07 19:19 40.57840 22.95217 738 ft 140 kts 165°
2026-05-07 19:19 40.56934 22.95546 667 ft 138 kts 170°
2026-05-07 19:20 40.55987 22.95854 559 ft 135 kts 165°
2026-05-07 19:20 40.55080 22.96207 572 ft 138 kts 169°
2026-05-07 19:20 40.54155 22.96445 388 ft 133 kts 172°
2026-05-07 19:20 40.53280 22.96696 123 ft 122 kts 172°
2026-05-07 19:21 40.52437 22.96956 36 ft 121 kts 170°
2026-05-07 19:21 40.51783 22.97156 28 ft 56 kts 166°
2026-05-07 19:21 40.51592 22.97222 30 ft 13 kts 164°
2026-05-07 19:21 40.51576 22.97227 30 ft 0 kts 167°
2026-05-07 19:22 40.51562 22.97231 30 ft 3 kts 167°
2026-05-07 19:23 40.51439 22.97269 31 ft 70 kts 167°
2026-05-07 19:23 40.50621 22.97484 210 ft 150 kts 180°
2026-05-07 19:23 40.49518 22.97491 856 ft 166 kts 185°
2026-05-07 19:24 40.48391 22.97366 2118 ft 161 kts 184°
2026-05-07 19:24 40.47044 22.97223 2590 ft 231 kts 184°
2026-05-07 19:24 40.45610 22.97075 4765 ft 166 kts 187°
2026-05-07 19:24 40.45360 22.97041 7630 ft 42 kts 356°
2026-05-07 19:25 40.45960 22.97162 6010 ft 186 kts 31°
2026-05-07 19:25 40.47650 22.97652 6463 ft 256 kts
2026-05-07 19:25 40.48846 22.99728 5640 ft 331 kts 65°
2026-05-07 19:25 40.49775 23.01682 8750 ft 28 kts 249°
2026-05-07 19:26 40.49228 23.00815 8231 ft 190 kts 185°
2026-05-07 19:26 40.47246 22.99798 4815 ft 413 kts 267°
2026-05-07 19:26 40.49563 22.97959 3566 ft 453 kts 345°
2026-05-07 19:26 40.50965 22.97614 8984 ft 222 kts 162°
2026-05-07 19:27 40.50866 22.98006 5060 ft 362 kts 354°
2026-05-07 19:27 40.52926 22.97847 6657 ft 272 kts 354°
2026-05-07 19:27 40.54950 22.97631 5280 ft 328 kts 352°
2026-05-07 19:27 40.57448 22.97219 4457 ft 404 kts 350°
2026-05-07 19:28 40.59883 22.96676 6952 ft 139 kts 343°
2026-05-07 19:28 40.59761 22.96646 12201 ft 168 kts 178°
2026-05-07 19:28 40.59756 22.96948 7059 ft 282 kts
2026-05-07 19:28 40.62505 22.96174 3242 ft 458 kts 266°
2026-05-07 19:29 40.62081 22.96728 2481 ft 357 kts 339°
2026-05-07 19:29 40.63301 22.96667 4723 ft 262 kts 103°
2026-05-07 19:29 40.61536 22.97691 3359 ft 345 kts 171°
2026-05-07 19:29 40.61111 22.96356 2820 ft 336 kts 26°
2026-05-07 19:30 40.60355 22.97103 2472 ft 317 kts 269°
2026-05-07 19:30 40.61066 22.95072 1875 ft 337 kts 40°
2026-05-07 19:30 40.62422 22.96154 2765 ft 190 kts 317°
2026-05-07 19:30 40.62281 22.94031 1235 ft 215 kts 243°
2026-05-07 19:31 40.62009 22.92854 2825 ft 124 kts 278°
2026-05-07 19:31 40.62774 22.92466 2326 ft 161 kts 54°
2026-05-07 19:31 40.62208 22.93605 1373 ft 177 kts 163°
2026-05-07 19:31 40.61209 22.94029 1358 ft 132 kts 163°
2026-05-07 19:32 40.60341 22.94348 1082 ft 140 kts 165°
2026-05-07 19:32 40.59404 22.94658 942 ft 129 kts 166°
2026-05-07 19:32 40.58530 22.94943 566 ft 134 kts 163°
2026-05-07 19:32 40.57652 22.95276 320 ft 128 kts 164°
2026-05-07 19:33 40.56773 22.95567 54 ft 133 kts 163°
2026-05-07 19:33 40.55917 22.95851 28 ft 122 kts 166°
2026-05-07 19:33 40.55371 22.96012 9 ft 118 kts 167°
2026-05-07 19:33 40.54940 22.96132 11 ft 0 kts 168°
2026-05-07 19:34 40.54805 22.96212 9 ft 0 kts 167°